GW1800 Weather Reports


Display with metric or nautical units.
time (UTC)temp
F
wind
direction
speed
MPH
gust
MPH
rain 1hr
in
rain 24hr
in
rain mn
in
humidity
%
barometer
mb
20260505092949 64 197 2.0 2.0 0.00 0.00 0.00 66 992.5
20260505092446 64 228 4.0 7.0 0.00 0.00 0.00 66 992.2
20260505091944 64 233 6.0 8.0 0.00 0.00 0.00 65 991.7
20260505091441 64 262 6.0 7.0 0.00 0.00 0.00 66 991.9
20260505090939 64 210 3.0 5.0 0.00 0.00 0.00 66 991.6
20260505090437 64 230 4.0 5.0 0.00 0.00 0.00 66 991.6
20260505085934 64 183 2.0 3.0 0.00 0.00 0.00 66 991.6
20260505085432 64 223 5.0 7.0 0.00 0.00 0.00 66 991.3
20260505084930 64 176 5.0 7.0 0.00 0.00 0.00 66 991.4
20260505084428 64 204 2.0 2.0 0.00 0.00 0.00 66 991.2
20260505083926 64 243 3.0 3.0 0.00 0.00 0.00 66 991.3
20260505083423 64 221 6.0 8.0 0.00 0.00 0.00 65 991.1
20260505082919 64 202 4.0 7.0 0.00 0.00 0.00 65 991.0
20260505082415 64 215 5.0 7.0 0.00 0.00 0.00 66 990.9
20260505081912 64 199 3.0 5.0 0.00 0.00 0.00 66 990.6
20260505081409 64 237 7.0 8.0 0.00 0.00 0.00 65 990.5
20260505080905 64 218 5.0 6.0 0.00 0.00 0.00 65 990.5
20260505080401 64 239 8.0 9.0 0.00 0.00 0.00 65 990.4
20260505075857 64 182 5.0 6.0 0.00 0.00 0.00 66 990.5
20260505075354 64 207 4.0 5.0 0.00 0.00 0.00 66 990.6
20260505074851 64 218 3.0 5.0 0.00 0.00 0.00 66 990.5
20260505074348 64 232 5.0 6.0 0.00 0.00 0.00 65 990.7
20260505073846 64 233 5.0 7.0 0.00 0.00 0.00 66 990.4
20260505073344 64 230 3.0 3.0 0.00 0.00 0.00 65 990.4
20260505072840 64 235 4.0 5.0 0.00 0.00 0.00 65 990.5
20260505072336 64 231 7.0 9.0 0.00 0.00 0.00 65 990.4
20260505071833 64 219 6.0 8.0 0.00 0.00 0.00 65 990.3
20260505071329 64 213 4.0 6.0 0.00 0.00 0.00 65 990.2
20260505070828 65 212 5.0 5.0 0.00 0.00 0.00 65 990.3
20260505070323 64 204 4.0 5.0 0.00 0.00 0.00 65 990.4
20260505065819 64 191 6.0 7.0 0.00 0.00 0.00 64 990.5
20260505065316 65 197 4.0 6.0 0.00 0.00 0.00 64 990.4
20260505064813 65 192 4.0 6.0 0.00 0.00 0.00 64 990.6
20260505064310 64 210 3.0 3.0 0.00 0.00 0.00 64 990.5
20260505063808 64 192 8.0 10.0 0.00 0.00 0.00 64 990.6
20260505063304 65 211 5.0 6.0 0.00 0.00 0.00 64 990.5
20260505062800 65 214 3.0 5.0 0.00 0.00 0.00 64 990.5
20260505062258 65 246 6.0 8.0 0.00 0.00 0.00 64 990.6
20260505061755 65 248 10.0 13.0 0.00 0.00 0.00 63 990.4
20260505061253 65 252 5.0 7.0 0.00 0.00 0.00 63 990.3
20260505060750 65 224 4.0 6.0 0.00 0.00 0.00 64 990.2
20260505060247 65 245 5.0 7.0 0.00 0.00 0.00 64 990.3
20260505055742 65 197 4.0 6.0 0.00 0.00 0.00 64 990.3
20260505055238 65 256 4.0 6.0 0.00 0.00 0.00 64 990.0
20260505054736 65 180 3.0 3.0 0.00 0.00 0.00 64 989.9
20260505054234 65 206 4.0 5.0 0.00 0.00 0.00 63 990.0
20260505053732 65 231 5.0 7.0 0.00 0.00 0.00 63 990.0
20260505053228 65 221 6.0 8.0 0.00 0.00 0.00 63 990.0
20260505052725 65 220 6.0 8.0 0.00 0.00 0.00 64 990.1
20260505052222 65 215 4.0 6.0 0.00 0.00 0.00 63 990.1
20260505051719 65 246 5.0 8.0 0.00 0.00 0.00 64 990.0
20260505051217 65 220 4.0 5.0 0.00 0.00 0.00 64 990.3
20260505050715 66 235 5.0 7.0 0.00 0.00 0.00 64 990.2
20260505050213 66 219 5.0 8.0 0.00 0.00 0.00 63 990.3
20260505041642 66 198 4.0 5.0 0.00 0.00 0.00 63 990.6
20260505041140 66 178 5.0 6.0 0.00 0.00 0.00 63 990.4
20260505040637 67 204 3.0 5.0 0.00 0.00 0.00 63 990.6
20260505040134 67 231 8.0 11.0 0.00 0.00 0.00 62 990.5
20260505035630 67 221 5.0 7.0 0.00 0.00 0.00 63 990.6
20260505035126 67 232 3.0 5.0 0.00 0.00 0.00 64 990.6
20260505034623 66 205 6.0 7.0 0.00 0.00 0.00 64 990.5
20260505034120 67 236 6.0 7.0 0.00 0.00 0.00 64 990.6
20260505033617 66 229 6.0 8.0 0.00 0.00 0.00 64 990.7
20260505033116 67 163 1.0 2.0 0.00 0.00 0.00 64 990.6
20260505032613 66 264 3.0 5.0 0.00 0.00 0.00 64 990.6
20260505032109 66 223 3.0 5.0 0.00 0.00 0.00 65 990.5
20260505031607 67 204 5.0 7.0 0.00 0.00 0.00 64 990.4
20260505031103 66 212 3.0 5.0 0.00 0.00 0.00 64 990.4
20260505030600 67 188 2.0 2.0 0.00 0.00 0.00 64 990.3
20260505030055 67 206 3.0 5.0 0.00 0.00 0.00 64 990.3
20260505025551 67 177 2.0 2.0 0.00 0.00 0.00 64 990.3
20260505025051 67 188 3.0 3.0 0.00 0.00 0.00 64 990.2
20260505024547 67 199 3.0 3.0 0.00 0.00 0.00 64 990.3
20260505024044 67 196 5.0 6.0 0.00 0.00 0.00 64 990.2
20260505023541 67 221 1.0 1.0 0.00 0.00 0.00 64 990.2
20260505023039 68 233 3.0 3.0 0.00 0.00 0.00 63 990.0
20260505022536 68 201 3.0 3.0 0.00 0.00 0.00 62 990.1
20260505022034 68 216 2.0 2.0 0.00 0.00 0.00 62 989.9
20260505021530 68 187 3.0 3.0 0.00 0.00 0.00 62 989.9
20260505021026 68 226 4.0 5.0 0.00 0.00 0.00 61 989.6
20260505020520 68 194 3.0 3.0 0.00 0.00 0.00 61 989.6
20260505020018 68 191 2.0 2.0 0.00 0.00 0.00 62 989.7
20260505015515 68 203 1.0 2.0 0.00 0.00 0.00 61 989.4
20260505015012 69 184 1.0 2.0 0.00 0.00 0.00 60 989.4
20260505014509 69 192 2.0 3.0 0.00 0.00 0.00 61 989.2
20260505014006 69 187 4.0 6.0 0.00 0.00 0.00 60 989.3
20260505013503 69 187 2.0 2.0 0.00 0.00 0.00 60 989.3
20260505013000 69 201 2.0 2.0 0.00 0.00 0.00 60 989.3
20260505012458 69 175 2.0 2.0 0.00 0.00 0.00 60 989.4
20260505011955 69 186 3.0 5.0 0.00 0.00 0.00 59 988.9
20260505011451 70 230 3.0 5.0 0.00 0.00 0.00 59 989.3
20260505010948 70 214 2.0 2.0 0.00 0.00 0.00 59 989.1
20260505010443 70 233 3.0 5.0 0.00 0.00 0.00 58 989.2
20260505005940 70 212 3.0 3.0 0.00 0.00 0.00 58 989.2
20260505005436 71 225 5.0 7.0 0.00 0.00 0.00 58 989.2
20260505004934 71 250 3.0 5.0 0.00 0.00 0.00 58 989.2
20260505004430 71 218 5.0 6.0 0.00 0.00 0.00 57 989.0
20260505003928 71 215 3.0 3.0 0.00 0.00 0.00 58 989.1
20260505003425 71 219 6.0 7.0 0.00 0.00 0.00 57 989.3
20260505002921 71 201 2.0 2.0 0.00 0.00 0.00 59 989.3
20260505002417 71 212 3.0 5.0 0.00 0.00 0.00 58 989.3
20260505001916 72 214 2.0 3.0 0.00 0.00 0.00 58 989.3
20260505001413 72 214 3.0 3.0 0.00 0.00 0.00 57 989.6
20260505000910 72 226 2.0 2.0 0.00 0.00 0.00 57 989.5
20260505000408 72 207 1.0 2.0 0.00 0.00 0.00 56 989.4
20260504235904 73 214 2.0 3.0 0.00 0.00 0.00 56 989.3
20260504235402 73 248 5.0 6.0 0.00 0.00 0.00 54 989.5
20260504234857 73 196 1.0 2.0 0.00 0.00 0.00 54 989.4
20260504234355 74 221 3.0 3.0 0.00 0.00 0.00 53 989.7
20260504233852 74 233 10.0 11.0 0.00 0.00 0.00 52 989.8
20260504233348 73 192 3.0 3.0 0.00 0.00 0.00 53 989.9
20260504232844 74 232 4.0 5.0 0.00 0.00 0.00 53 989.9
20260504232342 74 228 7.0 8.0 0.00 0.00 0.00 52 989.8
20260504231838 74 220 4.0 5.0 0.00 0.00 0.00 52 989.9
20260504231335 75 244 7.0 8.0 0.00 0.00 0.00 51 989.9
20260504230831 74 252 6.0 8.0 0.00 0.00 0.00 50 990.0
20260504230329 75 241 5.0 6.0 0.00 0.00 0.00 50 990.1
20260504225828 75 223 3.0 5.0 0.00 0.00 0.00 49 990.1
20260504225324 75 233 4.0 8.0 0.00 0.00 0.00 48 990.2
20260504224821 75 224 7.0 8.0 0.00 0.00 0.00 48 990.1
20260504224318 75 228 8.0 10.0 0.00 0.00 0.00 47 990.3
20260504223815 75 229 6.0 8.0 0.00 0.00 0.00 49 990.3
20260504223310 75 181 3.0 3.0 0.00 0.00 0.00 49 990.1
20260504222807 75 225 8.0 13.0 0.00 0.00 0.00 48 990.1
20260504222305 76 231 8.0 9.0 0.00 0.00 0.00 48 990.3
20260504221802 76 247 10.0 15.0 0.00 0.00 0.00 47 990.3
20260504221259 76 273 8.0 10.0 0.00 0.00 0.00 46 990.2
20260504220755 76 224 5.0 8.0 0.00 0.00 0.00 48 990.4
20260504220252 77 228 7.0 8.0 0.00 0.00 0.00 47 990.1
20260504215750 76 214 5.0 8.0 0.00 0.00 0.00 46 990.4
20260504215246 76 255 5.0 6.0 0.00 0.00 0.00 47 990.3
20260504214742 77 220 8.0 9.0 0.00 0.00 0.00 46 990.5
20260504214238 77 234 7.0 9.0 0.00 0.00 0.00 47 990.5
20260504213735 77 233 7.0 10.0 0.00 0.00 0.00 47 990.2
20260504213232 77 224 4.0 6.0 0.00 0.00 0.00 48 990.0
20260504212729 77 250 6.0 8.0 0.00 0.00 0.00 51 990.5
20260504212225 77 208 7.0 9.0 0.00 0.00 0.00 49 990.4
20260504211723 76 211 3.0 5.0 0.00 0.00 0.00 52 990.7
20260504211219 77 209 4.0 6.0 0.00 0.00 0.00 50 990.5
20260504210717 77 227 4.0 8.0 0.00 0.00 0.00 51 990.6
20260504210214 78 221 4.0 6.0 0.00 0.00 0.00 51 990.5
20260504205711 78 242 3.0 3.0 0.00 0.00 0.00 51 990.6
20260504205208 78 200 7.0 10.0 0.00 0.00 0.00 51 990.6
20260504204706 78 222 5.0 8.0 0.00 0.00 0.00 52 990.7
20260504204204 78 273 9.0 11.0 0.00 0.00 0.00 51 990.6
20260504203703 77 241 3.0 3.0 0.00 0.00 0.00 51 990.7
20260504203200 78 181 1.0 1.0 0.00 0.00 0.00 53 991.0
20260504202654 77 216 1.0 1.0 0.00 0.00 0.00 51 990.9
20260504202152 76 227 3.0 5.0 0.00 0.00 0.00 52 991.1
20260504201648 75 237 3.0 3.0 0.00 0.00 0.00 52 991.0
20260504201146 74 211 3.0 3.0 0.00 0.00 0.00 54 991.2
20260504200643 74 212 3.0 5.0 0.00 0.00 0.00 53 991.3
20260504200140 74 215 3.0 5.0 0.00 0.00 0.00 52 991.4
20260504195635 75 219 5.0 6.0 0.00 0.00 0.00 52 991.4
20260504195132 75 248 3.0 3.0 0.00 0.00 0.00 54 991.6
20260504194629 75 299 5.0 6.0 0.00 0.00 0.00 55 991.6
20260504194125 74 234 7.0 10.0 0.00 0.00 0.00 55 991.7
20260504193621 74 295 7.0 10.0 0.00 0.00 0.00 55 991.7
20260504193120 75 273 4.0 6.0 0.00 0.00 0.00 54 992.0
20260504192617 75 230 3.0 3.0 0.00 0.00 0.00 57 991.9
20260504192115 76 199 4.0 6.0 0.00 0.00 0.00 54 991.9
20260504191614 75 261 4.0 6.0 0.00 0.00 0.00 57 991.9
20260504191109 75 234 3.0 3.0 0.00 0.00 0.00 58 991.9
20260504190606 74 285 3.0 5.0 0.00 0.00 0.00 57 992.0
20260504185559 73 245 3.0 6.0 0.00 0.00 0.00 60 992.1
20260504185055 73 200 7.0 10.0 0.00 0.00 0.00 60 992.4
20260504184551 72 227 5.0 8.0 0.00 0.00 0.00 61 992.6
20260504184046 71 214 5.0 8.0 0.00 0.00 0.00 62 992.5
20260504183544 72 263 5.0 7.0 0.00 0.00 0.00 62 992.5
20260504183042 72 230 5.0 5.0 0.00 0.00 0.00 62 992.3
20260504182539 71 212 4.0 6.0 0.00 0.00 0.00 63 992.4
20260504182036 71 242 8.0 9.0 0.00 0.00 0.00 61 992.3
20260504181533 71 186 5.0 7.0 0.00 0.00 0.00 61 992.2
20260504181031 72 209 8.0 14.0 0.00 0.00 0.00 60 992.3
20260504180530 71 206 2.0 3.0 0.00 0.00 0.00 63 992.0
20260504180028 70 232 5.0 7.0 0.00 0.00 0.00 63 992.0
20260504175525 70 196 5.0 7.0 0.00 0.00 0.00 63 991.9
20260504175022 70 237 6.0 7.0 0.00 0.00 0.00 64 992.2
20260504174520 69 231 7.0 9.0 0.00 0.00 0.00 64 992.3
20260504174017 69 206 3.0 3.0 0.00 0.00 0.00 65 992.3
20260504173513 70 206 8.0 9.0 0.00 0.00 0.00 63 992.3
20260504173011 68 214 5.0 6.0 0.00 0.00 0.00 66 992.3
20260504172507 68 213 4.0 7.0 0.00 0.00 0.00 67 992.2
20260504172003 67 190 5.0 6.0 0.00 0.00 0.00 67 992.2
20260504171500 67 248 5.0 7.0 0.00 0.00 0.00 68 992.4
20260504170957 68 228 8.0 10.0 0.00 0.00 0.00 66 992.3
20260504170453 67 262 3.0 5.0 0.00 0.00 0.00 68 992.3
20260504160413 67 231 5.0 8.0 0.00 0.00 0.00 65 993.1
20260504150837 65 205 4.0 6.0 0.00 0.00 0.00 68 992.9
20260504150334 63 212 3.0 3.0 0.00 0.00 0.00 70 992.7
20260504141304 62 218 10.0 13.0 0.00 0.00 0.00 68 992.6
20260504140801 61 211 4.0 6.0 0.00 0.00 0.00 71 992.5
20260504140256 61 225 4.0 6.0 0.00 0.00 0.00 71 992.8
20260504130725 56 206 2.0 2.0 0.00 0.00 0.00 76 993.4
20260504130220 55 204 4.0 6.0 0.00 0.00 0.00 75 993.4
20260504120145 55 241 6.0 8.0 0.00 0.00 0.00 74 994.0
20260504110612 53 213 3.0 5.0 0.00 0.00 0.00 72 993.5
20260504110108 53 205 5.0 6.0 0.00 0.00 0.00 72 993.6
20260504100534 52 252 3.0 3.0 0.00 0.00 0.00 72 993.5